Liberal, Kansas, United States (67901)
Lat: 37.04N, Lon: 100.92W
Wx Zone: KSZ086
Local Info
Past Weather Observations for Wednesday, March 25, 2015

NOTE: This archive is for the closest National Weather Service station to Liberal. Information may differ from the station used for current weather conditions.

Click here for Long-term Archive

Time Weather Temperature Dewpoint Humidity Pressure Winds Precip Visibility
23:55
Partly Cloudy
39°F / 4°C 34°F / 1°C 81% 30.27 in
(1025 mb)
NNW 8.1 mph
(NNW 13 kph)
- 10SM
23:35
Partly Cloudy
39°F / 4°C 34°F / 1°C 81% 30.27 in
(1025 mb)
N 8.1 mph
(N 13 kph)
- 10SM
23:15
Clear
39°F / 4°C 34°F / 1°C 81% 30.3 in
(1026 mb)
NW 10.4 mph
(NW 17 kph)
- 10SM
22:55
Clear
39°F / 4°C 34°F / 1°C 81% 30.3 in
(1026 mb)
NW 9.2 mph
(NW 15 kph)
- 10SM
22:35
Partly Cloudy
39°F / 4°C 32°F / 0°C 75% 30.27 in
(1025 mb)
NW 9.2 mph
(NW 15 kph)
- 10SM
22:15
Overcast
39°F / 4°C 34°F / 1°C 81% 30.27 in
(1025 mb)
NNW 11.5 mph
(NNW 19 kph)
- 10SM
21:55
Overcast
39°F / 4°C 34°F / 1°C 81% 30.27 in
(1025 mb)
NNW 8.1 mph
(NNW 13 kph)
- 10SM
21:35
Mostly Cloudy
39°F / 4°C 32°F / 0°C 75% 30.27 in
(1025 mb)
NNW 10.4 mph
(NNW 17 kph)
- 10SM
21:15
Overcast
37°F / 3°C 30°F / -1°C 75% 30.27 in
(1025 mb)
NW 11.5 mph
(NW 19 kph)
- 10SM
20:55
Overcast
37°F / 3°C 30°F / -1°C 75% 30.24 in
(1024 mb)
N 16.1 mph
(N 26 kph)
0.01 in
(0.25 mm)
10SM
20:35
Overcast
39°F / 4°C 30°F / -1°C 70% 30.24 in
(1024 mb)
NNW 18.4 mph
(NNW 30 kph)
- 10SM
20:15
Overcast
37°F / 3°C 30°F / -1°C 75% 30.24 in
(1024 mb)
N 16.1 mph
(N 26 kph)
- 10SM
19:55
Overcast
37°F / 3°C 30°F / -1°C 75% 30.21 in
(1023 mb)
NNW 16.1 mph
(NNW 26 kph)
- 10SM
19:35
Overcast
37°F / 3°C 28°F / -2°C 70% 30.21 in
(1023 mb)
NNW 19.6 mph
(NNW 32 kph)
- 10SM
19:15
Overcast
39°F / 4°C 28°F / -2°C 65% 30.21 in
(1023 mb)
N 24.2 mph
(N 39 kph)
- 10SM
18:55
Overcast
39°F / 4°C 28°F / -2°C 65% 30.18 in
(1022 mb)
N 21.9 mph
(N 35 kph)
- 10SM
18:35
Overcast
39°F / 4°C 28°F / -2°C 65% 30.18 in
(1022 mb)
N 27.6 mph
(N 44 kph)
- 10SM
18:15
Overcast
41°F / 5°C 28°F / -2°C 61% 30.18 in
(1022 mb)
N 23 mph
(N 37 kph)
- 10SM
17:55
Overcast
43°F / 6°C 28°F / -2°C 57% 30.15 in
(1021 mb)
N 29.9 mph
(N 48 kph)
- 10SM
17:35
Overcast
43°F / 6°C 28°F / -2°C 57% 30.15 in
(1021 mb)
N 28.8 mph
(N 46 kph)
- 10SM
17:15
Overcast
45°F / 7°C 30°F / -1°C 57% 30.15 in
(1021 mb)
N 27.6 mph
(N 44 kph)
- 10SM
16:55
Overcast
46°F / 8°C 30°F / -1°C 53% 30.12 in
(1020 mb)
NNE 31.1 mph
(NNE 50 kph)
- 10SM
16:35
Overcast
46°F / 8°C 30°F / -1°C 53% 30.12 in
(1020 mb)
N 31.1 mph
(N 50 kph)
- 10SM
16:15
Overcast
52°F / 11°C 30°F / -1°C 44% 30.09 in
(1019 mb)
N 33.4 mph
(N 54 kph)
- 10SM
15:55
Partly Cloudy
55°F / 13°C 32°F / 0°C 41% 30.06 in
(1018 mb)
NNE 32.2 mph
(NNE 52 kph)
- 10SM
15:35
Clear
57°F / 14°C 32°F / 0°C 39% 30.04 in
(1017 mb)
NNE 29.9 mph
(NNE 48 kph)
- 10SM
15:15
Clear
57°F / 14°C 34°F / 1°C 41% 30.04 in
(1017 mb)
NNE 31.1 mph
(NNE 50 kph)
- 10SM
14:55
Partly Cloudy
61°F / 16°C 32°F / 0°C 34% 30.01 in
(1016 mb)
NNE 33.4 mph
(NNE 54 kph)
- 10SM
14:35
Mostly Cloudy
63°F / 17°C 32°F / 0°C 32% 29.98 in
(1015 mb)
N 36.8 mph
(N 59 kph)
- 10SM
14:15
Mostly Cloudy
63°F / 17°C 34°F / 1°C 34% 29.98 in
(1015 mb)
NNE 25.3 mph
(NNE 41 kph)
- 10SM
13:55
Partly Cloudy
63°F / 17°C 34°F / 1°C 34% 29.95 in
(1014 mb)
NNE 24.2 mph
(NNE 39 kph)
- 10SM
13:35
Partly Cloudy
64°F / 18°C 34°F / 1°C 32% 29.95 in
(1014 mb)
NE 19.6 mph
(NE 32 kph)
- 10SM
13:15
Clear
63°F / 17°C 34°F / 1°C 34% 29.95 in
(1014 mb)
NE 21.9 mph
(NE 35 kph)
- 10SM
12:55
Clear
63°F / 17°C 34°F / 1°C 34% 29.95 in
(1014 mb)
NNE 26.5 mph
(NNE 43 kph)
- 10SM
12:35
Clear
63°F / 17°C 34°F / 1°C 34% 29.92 in
(1013 mb)
NNE 23 mph
(NNE 37 kph)
- 10SM
12:15
Partly Cloudy
64°F / 18°C 37°F / 3°C 37% 29.92 in
(1013 mb)
N 23 mph
(N 37 kph)
- 10SM
11:55
Clear
63°F / 17°C 36°F / 2°C 37% 29.92 in
(1013 mb)
NNE 19.6 mph
(NNE 32 kph)
- 10SM
11:35
Clear
63°F / 17°C 37°F / 3°C 39% 29.92 in
(1013 mb)
NNE 16.1 mph
(NNE 26 kph)
- 10SM
11:15
Clear
63°F / 17°C 37°F / 3°C 39% 29.92 in
(1013 mb)
N 13.8 mph
(N 22 kph)
- 10SM
10:55
Clear
63°F / 17°C 37°F / 3°C 39% 29.92 in
(1013 mb)
NE 13.8 mph
(NE 22 kph)
- 10SM
10:35
Clear
63°F / 17°C 39°F / 4°C 42% 29.92 in
(1013 mb)
ENE 6.9 mph
(ENE 11 kph)
- 10SM
10:15
Clear
61°F / 16°C 37°F / 3°C 42% 29.89 in
(1012 mb)
E 8.1 mph
(E 13 kph)
- 10SM
09:55
Clear
61°F / 16°C 36°F / 2°C 39% 29.92 in
(1013 mb)
E 11.5 mph
(E 19 kph)
- 10SM
09:35
Clear
59°F / 15°C 36°F / 2°C 42% 29.92 in
(1013 mb)
E 13.8 mph
(E 22 kph)
- 10SM
09:15
Clear
57°F / 14°C 34°F / 1°C 41% 29.92 in
(1013 mb)
E 11.5 mph
(E 19 kph)
- 10SM
08:55
Clear
55°F / 13°C 32°F / 0°C 41% 29.89 in
(1012 mb)
E 12.7 mph
(E 20 kph)
- 10SM
08:35
Clear
54°F / 12°C 30°F / -1°C 41% 29.89 in
(1012 mb)
E 10.4 mph
(E 17 kph)
- 10SM
08:15
Clear
52°F / 11°C 30°F / -1°C 44% 29.92 in
(1013 mb)
ENE 9.2 mph
(ENE 15 kph)
- 10SM
07:55
Clear
48°F / 9°C 28°F / -2°C 46% 29.92 in
(1013 mb)
ENE 8.1 mph
(ENE 13 kph)
- 10SM
07:35
Clear
48°F / 9°C 28°F / -2°C 46% 29.92 in
(1013 mb)
ENE 9.2 mph
(ENE 15 kph)
- 10SM
07:15
Clear
48°F / 9°C 28°F / -2°C 46% 29.92 in
(1013 mb)
ENE 8.1 mph
(ENE 13 kph)
- 10SM
06:55
Clear
46°F / 8°C 27°F / -3°C 46% 29.92 in
(1013 mb)
ENE 6.9 mph
(ENE 11 kph)
- 10SM
06:35
Clear
48°F / 9°C 28°F / -2°C 46% 29.92 in
(1013 mb)
NE 6.9 mph
(NE 11 kph)
- 10SM
06:15
Clear
50°F / 10°C 28°F / -2°C 43% 29.89 in
(1012 mb)
ENE 5.8 mph
(ENE 9 kph)
- 10SM
05:55
Clear
48°F / 9°C 27°F / -3°C 43% 29.86 in
(1011 mb)
SE 9.2 mph
(SE 15 kph)
- 10SM
05:35
Clear
50°F / 10°C 28°F / -2°C 43% 29.86 in
(1011 mb)
SE 11.5 mph
(SE 19 kph)
- 10SM
05:15
Clear
52°F / 11°C 28°F / -2°C 41% 29.86 in
(1011 mb)
SE 11.5 mph
(SE 19 kph)
- 10SM
04:55
Clear
50°F / 10°C 27°F / -3°C 40% 29.86 in
(1011 mb)
ESE 10.4 mph
(ESE 17 kph)
- 10SM
04:35
Clear
50°F / 10°C 27°F / -3°C 40% 29.86 in
(1011 mb)
E 9.2 mph
(E 15 kph)
- 10SM
04:15
Clear
50°F / 10°C 27°F / -3°C 40% 29.86 in
(1011 mb)
E 10.4 mph
(E 17 kph)
- 10SM
03:55
Clear
48°F / 9°C 27°F / -3°C 43% 29.89 in
(1012 mb)
E 10.4 mph
(E 17 kph)
- 10SM
03:35
Clear
48°F / 9°C 27°F / -3°C 43% 29.89 in
(1012 mb)
E 8.1 mph
(E 13 kph)
- 10SM
03:15
Clear
48°F / 9°C 27°F / -3°C 43% 29.89 in
(1012 mb)
E 6.9 mph
(E 11 kph)
- 10SM
02:55
Clear
46°F / 8°C 27°F / -3°C 46% 29.89 in
(1012 mb)
E 8.1 mph
(E 13 kph)
- 10SM
02:35
Clear
45°F / 7°C 27°F / -3°C 49% 29.92 in
(1013 mb)
E 4.6 mph
(E 7 kph)
- 10SM
02:15
Clear
41°F / 5°C 25°F / -4°C 53% 29.92 in
(1013 mb)
NNE 5.8 mph
(NNE 9 kph)
- 10SM
01:55
Clear
43°F / 6°C 23°F / -5°C 46% 29.92 in
(1013 mb)
Calm - 10SM
01:35
Clear
46°F / 8°C 25°F / -4°C 43% 29.92 in
(1013 mb)
SE 3.5 mph
(SE 6 kph)
- 10SM
01:15
Clear
46°F / 8°C 23°F / -5°C 40% 29.89 in
(1012 mb)
SE 6.9 mph
(SE 11 kph)
- 10SM
00:55
Clear
48°F / 9°C 23°F / -5°C 37% 29.89 in
(1012 mb)
SE 9.2 mph
(SE 15 kph)
- 10SM
00:35
Clear
52°F / 11°C 23°F / -5°C 32% 29.89 in
(1012 mb)
SE 8.1 mph
(SE 13 kph)
- 10SM
00:15
Clear
52°F / 11°C 23°F / -5°C 32% 29.89 in
(1012 mb)
SE 9.2 mph
(SE 15 kph)
- 10SM
Time Weather Temperature Dewpoint Humidity Pressure Winds Precip Visibility


Weather for websites

WeatherForYou.com, LLC is not responsible for any damages or problems caused by this service. Current weather conditions are obtained from the closest station including government and personal stations which may have varying degrees of accuracy. Weather forecasts are derived from the NOAA NDFD. Like all things, this site belongs to Jesus Christ... He just trusts me to maintain it. If you have any questions or comments email webmaster@weatherforyou.com

Copyright © 2015, WeatherForYou.com LLC. All rights reserved.